Flag for New Zealand Weather past 2 weeks in Christchurch, New Zealand

Now
46 °F

Low clouds.


Feels Like: 42 °F
Forecast: 36 / 59 °F
Wind: 8 mph from East

Location: Christchurch Airport

Current Time: Sep 3, 2014 at 9:34:12 AM

Latest Report: Sep 3, 2014 at 8:30 AM


Visibility: N/A

Pressure: 29.86 "Hg

Humidity: 100%

Dew point: 46 °F

Location of ChristchurchLocation

Historic Weather in Christchurch — Graph

°F

Christchurch temperature yesterday

Maximum temperature yesterday: 54 °F (at 11:30 AM)
Minimum temperature yesterday: 32 °F (at 1:30 AM)
Average temperature yesterday: 45 °F

Past Weeks' High & Low Weather Summary

 TemperatureHumidityPressure
High55 °F (Aug 28, 1:00 PM)100% (Aug 19, 8:00 AM)30.63 "Hg (Aug 19, 8:00 AM)
Low28 °F (Aug 27, 7:00 AM)41% (Aug 22, 2:30 PM)29.74 "Hg (Aug 20, 2:30 PM)
Average45 °F85%30.33 "Hg
* Reported Aug 19 8:00 AM — Sep 3 8:00 AM, Christchurch, Weather by CustomWeather, © 2014

Note: Actual official high and low records may vary slightly from our data, if they occured in-between our weather recording intervals... More about our weather records

Advertising

Christchurch weather history for previous 24 hours

 ConditionsComfort  
Time TempWeatherWind HumidityBarometerVisibility
8:00 AM
Sep 3
45 °FLow clouds.5 mph100%29.86 "HgN/A
7:30 AM43 °FLow clouds.3 mph93%29.86 "HgN/A
7:00 AM41 °FLow clouds.2 mph93%29.86 "HgN/A
6:30 AM39 °FLow clouds.3 mph100%29.86 "HgN/A
6:00 AM39 °FPartly sunny.3 mph100%29.86 "HgN/A
5:30 AM39 °FPassing clouds.3 mph100%29.86 "HgN/A
5:00 AM43 °FLow clouds.3 mph93%29.86 "HgN/A
4:30 AM45 °FMostly cloudy.6 mph93%29.86 "HgN/A
4:00 AM43 °FLow clouds.5 mph93%29.86 "HgN/A
3:30 AM43 °FLow clouds.6 mph93%29.86 "HgN/A
3:00 AM43 °FPassing clouds.7 mph93%29.89 "HgN/A
2:30 AM46 °FLow clouds.8 mph93%29.89 "HgN/A
2:00 AM48 °FPassing clouds.14 mph94%29.89 "HgN/A
1:30 AM48 °FLow clouds.14 mph100%29.92 "HgN/A
1:00 AM48 °FPassing clouds.16 mph94%29.92 "HgN/A
12:30 AM48 °FPassing clouds.15 mph100%29.92 "HgN/A
12:00 AM48 °FPassing clouds.15 mph94%29.92 "HgN/A
11:30 PM
Sep 2
48 °FPassing clouds.16 mph94%29.92 "HgN/A
11:00 PM48 °FCool.15 mph94%29.95 "HgN/A
10:30 PM48 °FCool.15 mph87%29.95 "HgN/A
10:00 PM48 °FCool.16 mph94%29.95 "HgN/A
9:30 PM48 °FCool.15 mph94%29.95 "HgN/A
9:00 PM48 °FPassing clouds.16 mph94%29.95 "HgN/A
8:30 PM48 °FOvercast.16 mph94%29.95 "HgN/A
8:00 PM48 °FOvercast.16 mph94%29.95 "HgN/A
7:30 PM48 °FPassing clouds.15 mph94%29.95 "HgN/A
7:00 PM48 °FPassing clouds.16 mph94%29.95 "HgN/A
6:30 PM48 °FPassing clouds.18 mph87%29.95 "HgN/A
6:00 PM48 °FPassing clouds.17 mph87%29.95 "HgN/A
5:30 PM50 °FPassing clouds.20 mph82%29.95 "HgN/A
5:00 PM50 °FCool.22 mph82%29.95 "HgN/A
4:30 PM52 °FCool.23 mph72%29.95 "HgN/A
4:00 PM52 °FCool.25 mph67%29.95 "HgN/A
3:30 PM52 °FCool.24 mph72%29.98 "HgN/A
2:30 PM54 °FCool.22 mph67%29.98 "HgN/A
2:00 PM54 °FCool.24 mph67%29.98 "HgN/A
1:30 PM54 °FCool.24 mph72%29.98 "HgN/A
1:00 PM54 °FPassing clouds.22 mph72%30.01 "HgN/A
12:30 PM54 °FCool.21 mph77%30.04 "HgN/A
12:00 PM54 °FCool.20 mph72%30.04 "HgN/A
11:30 AM54 °FCool.17 mph77%30.04 "HgN/A
11:00 AM52 °FPassing clouds.18 mph77%30.07 "HgN/A
10:30 AM50 °FCool.16 mph82%30.07 "HgN/A
10:00 AM48 °FCool.15 mph87%30.07 "HgN/A
9:30 AM46 °FPassing clouds.10 mph87%30.07 "HgN/A
9:00 AM43 °FScattered clouds.10 mph93%30.07 "HgN/A
Weather by CustomWeather, © 2014

See weather overviewHow to use our weather pages